This demonstration page uses our WeatherBlox Daily Observations layout. Learn more.

Left ArrowRight Arrow

Hourly Observations for May 23, 2020

Temp ( °F °C ) Dew Point ( °F °C ) Humidity (%) Winds ( mph kmh ) Pressure ( in mb ) Visibility ( mi km ) Precip ( " mm )
12:56 am 00:56 Clear 57 13.9 56 13.3 96 96 Calm 29.83 1010 10 16 0.00 0.00
1:28 am 01:28 Clear with Mist and Fog 55 13 55 13 100 100 Calm 29.82 1010 2 2 0.00 0.00
1:30 am 01:30 Mostly Cloudy with Mist and Fog 55 13 55 13 100 100 Calm 29.82 1010 1 1 0.00 0.00
1:39 am 01:39 Mostly Cloudy with Fog 54 12 54 12 100 100 Calm 29.83 1010 1 1 0.00 0.00
1:54 am 01:54 Mostly Cloudy with Light Rain 54 12 54 12 100 100 Calm 29.83 1010 1 1 0.00 0.00
1:56 am 01:56 Mostly Cloudy with Light Rain 54 12.2 54 12.2 100 100 N 3 6 29.83 1010 1 1 0.00 0.00
2:28 am 02:28 Mostly Cloudy with Light Rain 54 12 54 12 100 100 N 6 9 29.81 1009 1 1 0.00 0.00
2:49 am 02:49 Cloudy with Fog 54 12 52 11 94 94 NW 3 6 29.81 1009 0 0 0.00 0.00
2:56 am 02:56 Cloudy with Fog 52 11.1 52 11.1 100 100 NNW 5 7 29.80 1009 0 0 0.00 0.00
3:06 am 03:06 Cloudy with Fog 54 12 54 12 100 100 NNW 6 9 29.80 1009 1 1 0.00 0.00
3:16 am 03:16 Mostly Cloudy with Mist and Fog 54 12 54 12 100 100 N 5 7 29.80 1009 1 2 0.00 0.00
3:25 am 03:25 Mostly Cloudy with Mist and Fog 54 12 54 12 100 100 N 5 7 29.80 1009 2 3 0.00 0.00
3:30 am 03:30 Partly Cloudy with Mist and Fog 52 11 52 11 100 100 N 6 9 29.81 1009 3 5 0.00 0.00
3:39 am 03:39 Partly Cloudy with Mist and Fog 54 12 52 11 94 94 N 5 7 29.80 1009 2 3 0.00 0.00
3:45 am 03:45 Mostly Cloudy with Mist and Fog 52 11 52 11 100 100 N 5 7 29.81 1009 1 1 0.00 0.00
3:56 am 03:56 Mostly Cloudy with Fog 52 11.1 51 10.6 97 97 N 5 7 29.80 1009 1 1 0.00 0.00
4:03 am 04:03 Cloudy with Mist and Fog 52 11 52 11 100 100 NW 5 7 29.82 1010 1 1 0.00 0.00
4:17 am 04:17 Cloudy with Mist and Fog 50 10 50 10 100 100 N 7 11 29.82 1010 1 2 0.00 0.00
4:32 am 04:32 Cloudy with Mist and Fog 52 11 52 11 100 100 NNW 6 9 29.81 1009 2 3 0.00 0.00
4:42 am 04:42 Cloudy with Mist and Fog 50 10 50 10 100 100 NNW 3 6 29.82 1010 1 1 0.00 0.00
4:53 am 04:53 Cloudy with Fog 50 10 50 10 100 100 W 5 7 29.83 1010 1 1 0.00 0.00
4:56 am 04:56 Cloudy with Fog 50 10 50 10 100 100 W 5 7 29.80 1009 0 0 0.00 0.00
5:04 am 05:04 Cloudy with Fog 50 10 48 9 94 94 NW 5 7 29.83 1010 1 1 0.00 0.00
5:22 am 05:22 Cloudy with Mist and Fog 50 10 50 10 100 100 Calm 29.84 1010 1 2 0.00 0.00
5:28 am 05:28 Mostly Cloudy with Mist and Fog 50 10 50 10 100 100 WSW 5 7 29.85 1011 2 3 0.00 0.00
5:36 am 05:36 Mostly Cloudy with Mist and Fog 50 10 50 10 100 100 W 5 7 29.85 1011 5 8 0.00 0.00
5:43 am 05:43 Mostly Cloudy with Mist and Fog 50 10 50 10 100 100 SW 6 9 29.85 1011 3 4 0.00 0.00
5:48 am 05:48 Mostly Cloudy with Mist and Fog 50 10 50 10 100 100 SW 5 7 29.85 1011 1 2 0.00 0.00
5:54 am 05:54 Mostly Cloudy with Mist and Fog 50 10 50 10 100 100 SW 5 7 29.85 1011 1 1 0.00 0.00
5:56 am 05:56 Mostly Cloudy with Mist and Fog 50 10 50 10 100 100 SW 5 7 29.83 1010 1 1 0.00 0.00
6:07 am 06:07 Mostly Cloudy with Fog 52 11 52 11 100 100 Calm 29.84 1010 0 0 0.00 0.00
6:14 am 06:14 Mostly Cloudy with Mist and Fog 52 11 52 11 100 100 WSW 3 6 29.84 1010 1 1 0.00 0.00
6:17 am 06:17 Partly Cloudy with Mist and Fog 52 11 52 11 100 100 Calm 29.84 1010 2 3 0.00 0.00
6:19 am 06:19 Partly Cloudy with Mist and Fog 52 11 52 11 100 100 WSW 3 6 29.85 1011 3 5 0.00 0.00
6:28 am 06:28 Mostly Cloudy with Mist and Fog 52 11 52 11 100 100 Calm 29.85 1011 2 3 0.00 0.00
6:31 am 06:31 Mostly Cloudy with Mist and Fog 50 10 50 10 100 100 Calm 29.86 1011 1 1 0.00 0.00
6:34 am 06:34 Mostly Cloudy with Fog 50 10 48 9 94 94 Calm 29.86 1011 0 0 0.00 0.00
6:56 am 06:56 Cloudy with Fog 50 10 50 10 100 100 W 3 6 29.85 1011 0 0 0.00 0.00
7:11 am 07:11 Cloudy with Mist and Fog 52 11 52 11 100 100 SW 8 13 29.88 1012 1 1 0.00 0.00
7:20 am 07:20 Cloudy with Fog 52 11 52 11 100 100 SW 12 19 29.88 1012 0 0 0.00 0.00
7:48 am 07:48 Cloudy with Mist and Fog 54 12 54 12 100 100 WSW 7 11 29.87 1011 1 1 0.00 0.00
7:51 am 07:51 Cloudy with Mist and Fog 54 12 54 12 100 100 WSW 6 9 29.87 1011 1 2 0.00 0.00
7:54 am 07:54 Cloudy with Mist and Fog 54 12 54 12 100 100 WSW 6 9 29.87 1011 3 5 0.00 0.00
7:56 am 07:56 Cloudy with Mist and Fog 54 12.2 54 12.2 100 100 WSW 7 11 29.87 1012 5 8 0.00 0.00
8:20 am 08:20 Partly Cloudy 55 13 55 13 100 100 WSW 3 6 29.86 1011 10 16 0.00 0.00
8:56 am 08:56 Sunny 57 13.9 57 13.9 100 100 Calm 29.86 1011 10 16 0.00 0.00
9:07 am 09:07 Mostly Sunny 57 14 57 14 100 100 Calm 29.85 1011 10 16 0.00 0.00
9:38 am 09:38 Mostly Cloudy 61 16 57 14 88 88 ESE 6 9 29.84 1010 10 16 0.00 0.00
9:56 am 09:56 Mostly Cloudy 61 16.1 59 15 93 93 ESE 8 13 29.86 1011 10 16 0.00 0.00
10:06 am 10:06 Partly Cloudy 63 17 59 15 88 88 E 7 11 29.82 1010 10 16 0.00 0.00
10:35 am 10:35 Mostly Cloudy 64 18 61 16 88 88 E 10 17 29.80 1009 10 16 0.00 0.00
10:56 am 10:56 Mostly Cloudy 63 17.2 60 15.6 90 90 E 10 17 29.84 1010 10 16 0.00 0.00
11:25 am 11:25 Mostly Cloudy 64 18 61 16 88 88 E 12 19 29.79 1009 10 16 0.00 0.00
11:40 am 11:40 Partly Cloudy 66 19 61 16 83 83 E 13 20 29.78 1009 10 16 0.00 0.00
11:56 am 11:56 Mostly Sunny 66 18.9 61 16.1 84 84 E 14 22 29.81 1010 10 16 0.00 0.00
12:31 pm 12:31 Mostly Cloudy 70 21 63 17 78 78 E 14 22 29.76 1008 10 16 0.00 0.00
12:52 pm 12:52 Mostly Cloudy 70 21 63 17 78 78 E 13 20 29.74 1007 10 16 0.00 0.00
12:56 pm 12:56 Mostly Cloudy 69 20.6 63 17.2 81 81 E 14 22 29.79 1009 10 16 0.00 0.00
1:56 pm 13:56 Mostly Sunny 72 22.2 64 17.8 76 76 ESE 18 30 29.77 1008 10 16 0.00 0.00
2:35 pm 14:35 Mostly Cloudy 73 23 64 18 74 74 ESE 20 31 29.69 1006 10 16 0.00 0.00
2:51 pm 14:51 Mostly Cloudy 73 23 63 17 69 69 SE 18 30 29.68 1005 10 16 0.00 0.00
2:56 pm 14:56 Cloudy 74 23.3 63 17.2 69 69 ESE 20 31 29.75 1008 10 16 0.00 0.00
3:56 pm 15:56 Cloudy 74 23.3 64 17.8 71 71 ESE 17 28 29.74 1007 10 16 0.00 0.00
4:56 pm 16:56 Cloudy 74 23.3 63 17.2 69 69 ESE 20 31 29.73 1007 10 16 0.00 0.00
5:56 pm 17:56 Cloudy 75 23.9 65 18.3 71 71 ESE 13 20 29.71 1006 10 16 0.00 0.00
6:56 pm 18:56 Mostly Cloudy 75 23.9 66 18.9 74 74 SE 12 19 29.69 1005 10 16 0.00 0.00
7:56 pm 19:56 Cloudy 73 22.8 65 18.3 76 76 ESE 14 22 29.68 1005 10 16 0.00 0.00
8:56 pm 20:56 Mostly Cloudy 70 21.1 66 18.9 87 87 E 9 15 29.68 1005 10 16 0.00 0.00
9:56 pm 21:56 Cloudy 70 21.1 65 18.3 84 84 E 13 20 29.68 1005 10 16 0.00 0.00
10:56 pm 22:56 Partly Cloudy 70 21.1 65 18.3 84 84 ESE 21 33 29.66 1004 10 16 0.00 0.00
11:56 pm 23:56 Cloudy 69 20.6 66 18.9 90 90 ESE 22 35 29.64 1004 10 16 0.00 0.00

Powered by AerisWeather